Location: Benque
(43.2594°N, 0.9178°E)
Time: 14:24:41
(UTC+00:00)

FALCON 9 R/B - Pass Details

Date: 24 January 2020
Orbit: 285 x 10158 km, 34.5° (Epoch: 22 February)

Event Time Altitude Azimuth Distance (km) Brightness Sun altitude
Rises 20:11:21 0° 247° (WSW) 7,523 7.8 -35.2°
Reaches altitude 10° 20:18:41 10° 241° (WSW) 4,845 6.6 -36.5°
Enters shadow 20:26:12 29° 210° (SSW) 1,988 4.2 -37.9°
